| time (UTC) | temp F | wind direction | speed MPH | gust MPH | rain 1hr in | rain 24hr in | rain mn in | humidity % | barometer mb |
| 20260507184030 | 83 | 232 | 4.0 | 6.0 | 0.00 | 0.00 | 0.00 | 20 | 1012.3 |
| 20260507183525 | 82 | 331 | 2.0 | 3.0 | 0.00 | 0.00 | 0.00 | 20 | 1012.5 |
| 20260507183023 | 83 | 245 | 1.0 | 1.0 | 0.00 | 0.00 | 0.00 | 19 | 1012.8 |
| 20260507182519 | 82 | 231 | 1.0 | 2.0 | 0.00 | 0.00 | 0.00 | 20 | 1012.8 |
| 20260507182015 | 81 | 353 | 3.0 | 5.0 | 0.00 | 0.00 | 0.00 | 21 | 1012.8 |
| 20260507181512 | 81 | 281 | 3.0 | 3.0 | 0.00 | 0.00 | 0.00 | 22 | 1012.9 |
| 20260507181008 | 81 | 42 | 4.0 | 5.0 | 0.00 | 0.00 | 0.00 | 24 | 1013.0 |
| 20260507180504 | 81 | 3 | 4.0 | 5.0 | 0.00 | 0.00 | 0.00 | 20 | 1013.0 |
| 20260507180001 | 79 | 185 | 0.0 | 1.0 | 0.00 | 0.00 | 0.00 | 21 | 1013.1 |
| 20260507175457 | 80 | 342 | 3.0 | 3.0 | 0.00 | 0.00 | 0.00 | 24 | 1013.2 |
| 20260507174955 | 80 | 321 | 4.0 | 5.0 | 0.00 | 0.00 | 0.00 | 23 | 1013.2 |
| 20260507174452 | 80 | 74 | 0.0 | 0.0 | 0.00 | 0.00 | 0.00 | 21 | 1013.3 |
| 20260507173950 | 80 | 14 | 2.0 | 2.0 | 0.00 | 0.00 | 0.00 | 21 | 1013.4 |
| 20260507173447 | 79 | 289 | 1.0 | 1.0 | 0.00 | 0.00 | 0.00 | 24 | 1013.5 |
| 20260507172943 | 81 | 156 | 1.0 | 1.0 | 0.00 | 0.00 | 0.00 | 24 | 1013.4 |
| 20260507172440 | 79 | 203 | 1.0 | 1.0 | 0.00 | 0.00 | 0.00 | 23 | 1013.8 |
| 20260507171937 | 80 | 133 | 1.0 | 2.0 | 0.00 | 0.00 | 0.00 | 22 | 1013.7 |
| 20260507171432 | 78 | 65 | 1.0 | 1.0 | 0.00 | 0.00 | 0.00 | 23 | 1013.5 |
| 20260507170930 | 77 | 285 | 1.0 | 2.0 | 0.00 | 0.00 | 0.00 | 24 | 1013.7 |
| 20260507170426 | 77 | 301 | 3.0 | 3.0 | 0.00 | 0.00 | 0.00 | 24 | 1013.6 |
| 20260507165923 | 76 | 203 | 1.0 | 1.0 | 0.00 | 0.00 | 0.00 | 24 | 1013.8 |
| 20260507165419 | 77 | 192 | 0.0 | 1.0 | 0.00 | 0.00 | 0.00 | 24 | 1014.1 |
| 20260507164914 | 76 | 275 | 2.0 | 3.0 | 0.00 | 0.00 | 0.00 | 24 | 1013.8 |
| 20260507164412 | 76 | 77 | 1.0 | 2.0 | 0.00 | 0.00 | 0.00 | 24 | 1014.1 |
| 20260507163909 | 76 | 69 | 1.0 | 2.0 | 0.00 | 0.00 | 0.00 | 25 | 1014.1 |
| 20260507163406 | 75 | 0 | 3.0 | 3.0 | 0.00 | 0.00 | 0.00 | 25 | 1014.0 |
| 20260507162903 | 74 | 303 | 2.0 | 2.0 | 0.00 | 0.00 | 0.00 | 28 | 1014.1 |
| 20260507162358 | 74 | 162 | 1.0 | 1.0 | 0.00 | 0.00 | 0.00 | 26 | 1013.8 |
| 20260507161855 | 74 | 29 | 2.0 | 2.0 | 0.00 | 0.00 | 0.00 | 24 | 1014.1 |
| 20260507161351 | 73 | 237 | 2.0 | 2.0 | 0.00 | 0.00 | 0.00 | 26 | 1014.3 |
| 20260507160848 | 74 | 140 | 2.0 | 2.0 | 0.00 | 0.00 | 0.00 | 28 | 1014.5 |
| 20260507160344 | 75 | 197 | 1.0 | 1.0 | 0.00 | 0.00 | 0.00 | 27 | 1014.3 |
| 20260507155840 | 74 | 171 | 1.0 | 1.0 | 0.00 | 0.00 | 0.00 | 27 | 1014.4 |
| 20260507155336 | 73 | 146 | 1.0 | 1.0 | 0.00 | 0.00 | 0.00 | 25 | 1014.3 |
| 20260507154833 | 72 | 108 | 1.0 | 1.0 | 0.00 | 0.00 | 0.00 | 27 | 1014.3 |
| 20260507154331 | 74 | 154 | 0.0 | 1.0 | 0.00 | 0.00 | 0.00 | 26 | 1014.5 |
| 20260507153827 | 72 | 199 | 1.0 | 1.0 | 0.00 | 0.00 | 0.00 | 32 | 1014.3 |
| 20260507153324 | 71 | 49 | 1.0 | 1.0 | 0.00 | 0.00 | 0.00 | 31 | 1014.6 |
| 20260507152821 | 71 | 184 | 1.0 | 1.0 | 0.00 | 0.00 | 0.00 | 31 | 1014.2 |
| 20260507152317 | 71 | 191 | 0.0 | 1.0 | 0.00 | 0.00 | 0.00 | 29 | 1014.3 |
| 20260507151813 | 71 | 54 | 1.0 | 2.0 | 0.00 | 0.00 | 0.00 | 29 | 1014.6 |
| 20260507151309 | 71 | 155 | 1.0 | 1.0 | 0.00 | 0.00 | 0.00 | 28 | 1014.5 |
| 20260507150806 | 71 | 197 | 0.0 | 0.0 | 0.00 | 0.00 | 0.00 | 28 | 1014.6 |
| 20260507150303 | 69 | 156 | 1.0 | 1.0 | 0.00 | 0.00 | 0.00 | 30 | 1014.8 |
| 20260507145759 | 69 | 140 | 1.0 | 2.0 | 0.00 | 0.00 | 0.00 | 30 | 1014.4 |
| 20260507145255 | 68 | 172 | 1.0 | 1.0 | 0.00 | 0.00 | 0.00 | 31 | 1014.5 |
| 20260507144753 | 68 | 131 | 2.0 | 3.0 | 0.00 | 0.00 | 0.00 | 31 | 1014.5 |
| 20260507144250 | 67 | 84 | 2.0 | 2.0 | 0.00 | 0.00 | 0.00 | 33 | 1014.6 |
| 20260507143746 | 66 | 186 | 1.0 | 2.0 | 0.00 | 0.00 | 0.00 | 35 | 1014.6 |
| 20260507143244 | 65 | 143 | 1.0 | 1.0 | 0.00 | 0.00 | 0.00 | 36 | 1014.7 |
| 20260507142740 | 64 | 167 | 0.0 | 1.0 | 0.00 | 0.00 | 0.00 | 37 | 1014.8 |
| 20260507142236 | 63 | 173 | 1.0 | 1.0 | 0.00 | 0.00 | 0.00 | 38 | 1014.7 |
| 20260507141733 | 62 | 155 | 3.0 | 5.0 | 0.00 | 0.00 | 0.00 | 38 | 1014.6 |
| 20260507141230 | 62 | 184 | 3.0 | 5.0 | 0.00 | 0.00 | 0.00 | 38 | 1014.6 |
| 20260507140726 | 62 | 176 | 1.0 | 1.0 | 0.00 | 0.00 | 0.00 | 38 | 1014.7 |
| 20260507140224 | 62 | 155 | 0.0 | 1.0 | 0.00 | 0.00 | 0.00 | 39 | 1014.8 |
| 20260507135720 | 61 | 167 | 0.0 | 0.0 | 0.00 | 0.00 | 0.00 | 39 | 1014.8 |
| 20260507135218 | 60 | 168 | 1.0 | 1.0 | 0.00 | 0.00 | 0.00 | 40 | 1014.5 |
| 20260507134714 | 60 | 139 | 1.0 | 1.0 | 0.00 | 0.00 | 0.00 | 40 | 1014.7 |
| 20260507134210 | 59 | 169 | 2.0 | 2.0 | 0.00 | 0.00 | 0.00 | 42 | 1014.5 |
| 20260507133706 | 58 | 181 | 0.0 | 1.0 | 0.00 | 0.00 | 0.00 | 42 | 1014.6 |
| 20260507133203 | 57 | 151 | 1.0 | 1.0 | 0.00 | 0.00 | 0.00 | 44 | 1014.5 |
| 20260507132701 | 57 | 183 | 1.0 | 1.0 | 0.00 | 0.00 | 0.00 | 44 | 1014.5 |
| 20260507132157 | 56 | 177 | 1.0 | 1.0 | 0.00 | 0.00 | 0.00 | 45 | 1014.6 |
| 20260507131654 | 56 | 158 | 0.0 | 1.0 | 0.00 | 0.00 | 0.00 | 46 | 1014.7 |
| 20260507131152 | 55 | 194 | 1.0 | 1.0 | 0.00 | 0.00 | 0.00 | 46 | 1014.4 |
| 20260507130648 | 55 | 181 | 1.0 | 2.0 | 0.00 | 0.00 | 0.00 | 47 | 1014.4 |
| 20260507130146 | 54 | 153 | 2.0 | 3.0 | 0.00 | 0.00 | 0.00 | 48 | 1014.4 |
| 20260507125644 | 54 | 133 | 2.0 | 2.0 | 0.00 | 0.00 | 0.00 | 49 | 1014.2 |
| 20260507125142 | 53 | 182 | 2.0 | 3.0 | 0.00 | 0.00 | 0.00 | 50 | 1014.3 |
| 20260507124637 | 53 | 177 | 0.0 | 1.0 | 0.00 | 0.00 | 0.00 | 51 | 1014.4 |
| 20260507124136 | 52 | 199 | 1.0 | 1.0 | 0.00 | 0.00 | 0.00 | 52 | 1014.4 |
| 20260507123634 | 52 | 147 | 0.0 | 1.0 | 0.00 | 0.00 | 0.00 | 52 | 1014.1 |
| 20260507123130 | 53 | 182 | 1.0 | 1.0 | 0.00 | 0.00 | 0.00 | 50 | 1014.6 |
| 20260507122626 | 53 | 187 | 3.0 | 3.0 | 0.00 | 0.00 | 0.00 | 49 | 1014.1 |
| 20260507122122 | 53 | 192 | 1.0 | 2.0 | 0.00 | 0.00 | 0.00 | 49 | 1014.1 |
| 20260507121618 | 54 | 186 | 0.0 | 1.0 | 0.00 | 0.00 | 0.00 | 48 | 1014.1 |
| 20260507121114 | 53 | 166 | 1.0 | 1.0 | 0.00 | 0.00 | 0.00 | 48 | 1014.2 |
| 20260507120610 | 54 | 164 | 0.0 | 0.0 | 0.00 | 0.00 | 0.00 | 50 | 1014.1 |
| 20260507120107 | 55 | 182 | 1.0 | 1.0 | 0.00 | 0.00 | 0.00 | 48 | 1014.1 |
| 20260507115603 | 54 | 122 | 1.0 | 1.0 | 0.00 | 0.00 | 0.00 | 47 | 1014.2 |
| 20260507115059 | 54 | 180 | 0.0 | 1.0 | 0.00 | 0.00 | 0.00 | 48 | 1014.1 |
| 20260507114555 | 55 | 197 | 2.0 | 3.0 | 0.00 | 0.00 | 0.00 | 48 | 1014.2 |
| 20260507114053 | 55 | 182 | 0.0 | 1.0 | 0.00 | 0.00 | 0.00 | 48 | 1014.1 |
| 20260507113549 | 54 | 189 | 1.0 | 1.0 | 0.00 | 0.00 | 0.00 | 48 | 1014.1 |
| 20260507113047 | 54 | 166 | 1.0 | 1.0 | 0.00 | 0.00 | 0.00 | 49 | 1014.3 |
| 20260507112545 | 54 | 147 | 2.0 | 2.0 | 0.00 | 0.00 | 0.00 | 49 | 1014.2 |
| 20260507112041 | 53 | 193 | 0.0 | 1.0 | 0.00 | 0.00 | 0.00 | 51 | 1014.3 |
| 20260507111538 | 54 | 181 | 1.0 | 2.0 | 0.00 | 0.00 | 0.00 | 51 | 1014.2 |
| 20260507111035 | 54 | 195 | 3.0 | 3.0 | 0.00 | 0.00 | 0.00 | 50 | 1014.3 |
| 20260507110531 | 54 | 204 | 4.0 | 6.0 | 0.00 | 0.00 | 0.00 | 49 | 1014.1 |
| 20260507110028 | 54 | 190 | 5.0 | 5.0 | 0.00 | 0.00 | 0.00 | 49 | 1014.0 |
| 20260507105525 | 54 | 172 | 2.0 | 2.0 | 0.00 | 0.00 | 0.00 | 49 | 1014.1 |
| 20260507105021 | 55 | 171 | 3.0 | 5.0 | 0.00 | 0.00 | 0.00 | 47 | 1014.3 |
| 20260507104518 | 55 | 171 | 1.0 | 1.0 | 0.00 | 0.00 | 0.00 | 46 | 1014.3 |
| 20260507104015 | 55 | 108 | 1.0 | 2.0 | 0.00 | 0.00 | 0.00 | 46 | 1014.1 |
| 20260507103511 | 55 | 151 | 3.0 | 3.0 | 0.00 | 0.00 | 0.00 | 46 | 1014.2 |
| 20260507103007 | 55 | 165 | 3.0 | 5.0 | 0.00 | 0.00 | 0.00 | 46 | 1014.3 |
| 20260507102504 | 55 | 170 | 3.0 | 5.0 | 0.00 | 0.00 | 0.00 | 47 | 1014.2 |
| 20260507102000 | 55 | 183 | 1.0 | 1.0 | 0.00 | 0.00 | 0.00 | 48 | 1014.2 |
| 20260507101455 | 56 | 194 | 2.0 | 2.0 | 0.00 | 0.00 | 0.00 | 47 | 1014.4 |
| 20260507100952 | 56 | 175 | 2.0 | 2.0 | 0.00 | 0.00 | 0.00 | 46 | 1014.3 |
| 20260507100450 | 57 | 137 | 1.0 | 1.0 | 0.00 | 0.00 | 0.00 | 46 | 1014.0 |
| 20260507095948 | 57 | 151 | 2.0 | 3.0 | 0.00 | 0.00 | 0.00 | 44 | 1014.2 |
| 20260507095445 | 56 | 135 | 1.0 | 1.0 | 0.00 | 0.00 | 0.00 | 47 | 1014.3 |
| 20260507094942 | 55 | 178 | 0.0 | 0.0 | 0.00 | 0.00 | 0.00 | 49 | 1014.3 |
| 20260507094438 | 56 | 209 | 1.0 | 1.0 | 0.00 | 0.00 | 0.00 | 49 | 1014.2 |
| 20260507093935 | 56 | 191 | 3.0 | 3.0 | 0.00 | 0.00 | 0.00 | 48 | 1014.3 |
| 20260507093433 | 56 | 185 | 2.0 | 2.0 | 0.00 | 0.00 | 0.00 | 47 | 1014.4 |
| 20260507092931 | 56 | 185 | 0.0 | 0.0 | 0.00 | 0.00 | 0.00 | 47 | 1014.2 |
| 20260507092427 | 57 | 181 | 1.0 | 1.0 | 0.00 | 0.00 | 0.00 | 46 | 1014.4 |
| 20260507091924 | 57 | 168 | 0.0 | 1.0 | 0.00 | 0.00 | 0.00 | 45 | 1014.4 |
| 20260507091420 | 57 | 187 | 0.0 | 0.0 | 0.00 | 0.00 | 0.00 | 45 | 1014.4 |
| 20260507090916 | 57 | 144 | 1.0 | 1.0 | 0.00 | 0.00 | 0.00 | 44 | 1014.6 |
| 20260507090412 | 58 | 189 | 1.0 | 1.0 | 0.00 | 0.00 | 0.00 | 43 | 1014.5 |
| 20260507085909 | 58 | 208 | 1.0 | 1.0 | 0.00 | 0.00 | 0.00 | 44 | 1014.4 |
| 20260507085406 | 58 | 227 | 0.0 | 0.0 | 0.00 | 0.00 | 0.00 | 43 | 1014.4 |
| 20260507084903 | 58 | 160 | 0.0 | 1.0 | 0.00 | 0.00 | 0.00 | 43 | 1014.4 |
| 20260507084400 | 58 | 181 | 1.0 | 1.0 | 0.00 | 0.00 | 0.00 | 43 | 1014.7 |
| 20260507083857 | 59 | 183 | 0.0 | 0.0 | 0.00 | 0.00 | 0.00 | 42 | 1014.6 |
| 20260507083353 | 59 | 174 | 1.0 | 1.0 | 0.00 | 0.00 | 0.00 | 42 | 1014.7 |
| 20260507082850 | 59 | 142 | 1.0 | 1.0 | 0.00 | 0.00 | 0.00 | 43 | 1014.7 |
| 20260507082345 | 59 | 145 | 1.0 | 1.0 | 0.00 | 0.00 | 0.00 | 42 | 1015.0 |
| 20260507081843 | 59 | 177 | 1.0 | 2.0 | 0.00 | 0.00 | 0.00 | 42 | 1014.9 |
| 20260507081339 | 59 | 179 | 2.0 | 3.0 | 0.00 | 0.00 | 0.00 | 41 | 1014.6 |
| 20260507080836 | 60 | 189 | 3.0 | 3.0 | 0.00 | 0.00 | 0.00 | 42 | 1014.6 |
| 20260507080332 | 60 | 199 | 1.0 | 2.0 | 0.00 | 0.00 | 0.00 | 39 | 1014.8 |
| 20260507075828 | 60 | 165 | 2.0 | 2.0 | 0.00 | 0.00 | 0.00 | 39 | 1014.6 |
| 20260507075324 | 60 | 148 | 1.0 | 2.0 | 0.00 | 0.00 | 0.00 | 39 | 1014.6 |
| 20260507074820 | 60 | 200 | 1.0 | 2.0 | 0.00 | 0.00 | 0.00 | 39 | 1014.7 |
| 20260507074318 | 61 | 189 | 1.0 | 2.0 | 0.00 | 0.00 | 0.00 | 39 | 1014.7 |
| 20260507073815 | 61 | 187 | 1.0 | 2.0 | 0.00 | 0.00 | 0.00 | 38 | 1014.6 |
| 20260507073312 | 61 | 155 | 0.0 | 0.0 | 0.00 | 0.00 | 0.00 | 37 | 1014.4 |
| 20260507072809 | 61 | 152 | 0.0 | 1.0 | 0.00 | 0.00 | 0.00 | 37 | 1014.6 |
| 20260507072308 | 61 | 161 | 0.0 | 1.0 | 0.00 | 0.00 | 0.00 | 39 | 1014.7 |
| 20260507071803 | 61 | 187 | 0.0 | 0.0 | 0.00 | 0.00 | 0.00 | 39 | 1014.5 |
| 20260507071300 | 61 | 177 | 1.0 | 1.0 | 0.00 | 0.00 | 0.00 | 37 | 1014.7 |
| 20260507070756 | 61 | 195 | 0.0 | 1.0 | 0.00 | 0.00 | 0.00 | 38 | 1014.5 |
| 20260507070254 | 61 | 185 | 0.0 | 0.0 | 0.00 | 0.00 | 0.00 | 38 | 1014.8 |
| 20260507065750 | 62 | 192 | 0.0 | 0.0 | 0.00 | 0.00 | 0.00 | 38 | 1014.6 |
| 20260507065247 | 62 | 190 | 1.0 | 1.0 | 0.00 | 0.00 | 0.00 | 37 | 1014.5 |
| 20260507064744 | 62 | 192 | 1.0 | 1.0 | 0.00 | 0.00 | 0.00 | 37 | 1014.6 |
| 20260507064243 | 63 | 172 | 2.0 | 2.0 | 0.00 | 0.00 | 0.00 | 36 | 1014.7 |
| 20260507063740 | 63 | 186 | 2.0 | 3.0 | 0.00 | 0.00 | 0.00 | 35 | 1014.6 |
| 20260507063237 | 63 | 192 | 0.0 | 1.0 | 0.00 | 0.00 | 0.00 | 35 | 1014.7 |
| 20260507062734 | 63 | 141 | 1.0 | 1.0 | 0.00 | 0.00 | 0.00 | 35 | 1014.6 |
| 20260507062231 | 63 | 143 | 2.0 | 2.0 | 0.00 | 0.00 | 0.00 | 34 | 1014.4 |
| 20260507061730 | 64 | 194 | 1.0 | 1.0 | 0.00 | 0.00 | 0.00 | 35 | 1014.6 |
| 20260507061227 | 64 | 199 | 0.0 | 1.0 | 0.00 | 0.00 | 0.00 | 35 | 1014.5 |
| 20260507060725 | 64 | 189 | 1.0 | 1.0 | 0.00 | 0.00 | 0.00 | 35 | 1014.5 |
| 20260507060221 | 64 | 184 | 3.0 | 5.0 | 0.00 | 0.00 | 0.00 | 36 | 1014.5 |
| 20260507055717 | 64 | 179 | 0.0 | 0.0 | 0.00 | 0.00 | 0.00 | 35 | 1014.2 |
| 20260507055213 | 65 | 169 | 0.0 | 1.0 | 0.00 | 0.00 | 0.00 | 33 | 1014.4 |
| 20260507054709 | 66 | 231 | 1.0 | 1.0 | 0.00 | 0.00 | 0.00 | 32 | 1014.4 |
| 20260507054206 | 66 | 195 | 0.0 | 0.0 | 0.00 | 0.00 | 0.00 | 30 | 1014.1 |
| 20260507053704 | 66 | 177 | 0.0 | 0.0 | 0.00 | 0.00 | 0.00 | 32 | 1014.2 |
| 20260507053202 | 66 | 232 | 1.0 | 1.0 | 0.00 | 0.00 | 0.00 | 30 | 1014.3 |
| 20260507052701 | 66 | 189 | 0.0 | 0.0 | 0.00 | 0.00 | 0.00 | 31 | 1014.3 |
| 20260507052156 | 66 | 169 | 0.0 | 0.0 | 0.00 | 0.00 | 0.00 | 32 | 1014.2 |
| 20260507051654 | 67 | 270 | 0.0 | 0.0 | 0.00 | 0.00 | 0.00 | 30 | 1014.2 |
| 20260507051150 | 67 | 200 | 0.0 | 0.0 | 0.00 | 0.00 | 0.00 | 29 | 1014.1 |
| 20260507050647 | 67 | 142 | 0.0 | 0.0 | 0.00 | 0.00 | 0.00 | 29 | 1014.1 |
| 20260507050144 | 67 | 199 | 0.0 | 0.0 | 0.00 | 0.00 | 0.00 | 28 | 1014.2 |
| 20260507045641 | 67 | 161 | 0.0 | 0.0 | 0.00 | 0.00 | 0.00 | 29 | 1014.2 |
| 20260507045137 | 68 | 189 | 0.0 | 0.0 | 0.00 | 0.00 | 0.00 | 29 | 1014.0 |
| 20260507044634 | 68 | 229 | 1.0 | 1.0 | 0.00 | 0.00 | 0.00 | 27 | 1014.1 |
| 20260507044131 | 68 | 180 | 0.0 | 0.0 | 0.00 | 0.00 | 0.00 | 30 | 1014.0 |
| 20260507043627 | 68 | 310 | 1.0 | 1.0 | 0.00 | 0.00 | 0.00 | 28 | 1014.1 |
| 20260507043124 | 69 | 336 | 1.0 | 1.0 | 0.00 | 0.00 | 0.00 | 29 | 1014.1 |
| 20260507042620 | 69 | 329 | 1.0 | 1.0 | 0.00 | 0.00 | 0.00 | 29 | 1014.0 |
| 20260507042116 | 69 | 348 | 2.0 | 2.0 | 0.00 | 0.00 | 0.00 | 26 | 1014.0 |
| 20260507041613 | 69 | 107 | 0.0 | 1.0 | 0.00 | 0.00 | 0.00 | 27 | 1014.0 |
| 20260507041110 | 70 | 47 | 2.0 | 2.0 | 0.00 | 0.00 | 0.00 | 26 | 1013.7 |
| 20260507040607 | 70 | 206 | 0.0 | 1.0 | 0.00 | 0.00 | 0.00 | 29 | 1014.0 |
| 20260507035559 | 71 | 311 | 2.0 | 2.0 | 0.00 | 0.00 | 0.00 | 26 | 1013.5 |
| 20260507035055 | 71 | 277 | 3.0 | 3.0 | 0.00 | 0.00 | 0.00 | 25 | 1013.6 |
| 20260507034552 | 71 | 305 | 3.0 | 5.0 | 0.00 | 0.00 | 0.00 | 25 | 1013.6 |
| 20260507034050 | 71 | 258 | 1.0 | 1.0 | 0.00 | 0.00 | 0.00 | 26 | 1013.5 |
| 20260507033548 | 71 | 289 | 1.0 | 2.0 | 0.00 | 0.00 | 0.00 | 24 | 1013.5 |
| 20260507033044 | 71 | 327 | 2.0 | 2.0 | 0.00 | 0.00 | 0.00 | 25 | 1013.5 |
| 20260507032542 | 71 | 251 | 1.0 | 1.0 | 0.00 | 0.00 | 0.00 | 25 | 1013.3 |
| 20260507032038 | 71 | 211 | 2.0 | 2.0 | 0.00 | 0.00 | 0.00 | 25 | 1013.2 |
| 20260507031534 | 72 | 198 | 1.0 | 2.0 | 0.00 | 0.00 | 0.00 | 26 | 1013.3 |
| 20260507031032 | 71 | 191 | 1.0 | 2.0 | 0.00 | 0.00 | 0.00 | 25 | 1013.5 |
| 20260507030528 | 72 | 255 | 1.0 | 1.0 | 0.00 | 0.00 | 0.00 | 26 | 1013.2 |
| 20260507030026 | 72 | 301 | 1.0 | 2.0 | 0.00 | 0.00 | 0.00 | 26 | 1013.0 |
| 20260507025523 | 72 | 294 | 3.0 | 3.0 | 0.00 | 0.00 | 0.00 | 26 | 1013.2 |
| 20260507025020 | 72 | 259 | 1.0 | 1.0 | 0.00 | 0.00 | 0.00 | 27 | 1013.2 |
| 20260507024518 | 72 | 313 | 3.0 | 3.0 | 0.00 | 0.00 | 0.00 | 24 | 1012.9 |
| 20260507024014 | 72 | 255 | 1.0 | 1.0 | 0.00 | 0.00 | 0.00 | 27 | 1012.9 |
| 20260507023510 | 72 | 324 | 3.0 | 3.0 | 0.00 | 0.00 | 0.00 | 25 | 1012.9 |
| 20260507023008 | 72 | 310 | 3.0 | 3.0 | 0.00 | 0.00 | 0.00 | 25 | 1012.9 |
| 20260507022505 | 73 | 330 | 3.0 | 3.0 | 0.00 | 0.00 | 0.00 | 24 | 1013.0 |
| 20260507022000 | 73 | 314 | 4.0 | 5.0 | 0.00 | 0.00 | 0.00 | 24 | 1013.0 |
| 20260507021456 | 73 | 344 | 3.0 | 3.0 | 0.00 | 0.00 | 0.00 | 26 | 1012.9 |
| 20260507020953 | 73 | 351 | 3.0 | 3.0 | 0.00 | 0.00 | 0.00 | 26 | 1013.1 |
| 20260507020450 | 73 | 321 | 2.0 | 2.0 | 0.00 | 0.00 | 0.00 | 26 | 1013.1 |
| 20260507015947 | 73 | 294 | 3.0 | 5.0 | 0.00 | 0.00 | 0.00 | 28 | 1012.8 |
| 20260507015446 | 74 | 308 | 2.0 | 2.0 | 0.00 | 0.00 | 0.00 | 27 | 1012.9 |
| 20260507014942 | 74 | 10 | 2.0 | 2.0 | 0.00 | 0.00 | 0.00 | 25 | 1012.7 |
| 20260507014439 | 75 | 326 | 3.0 | 3.0 | 0.00 | 0.00 | 0.00 | 27 | 1012.7 |
| 20260507013935 | 75 | 330 | 1.0 | 2.0 | 0.00 | 0.00 | 0.00 | 25 | 1013.0 |
| 20260507013432 | 75 | 333 | 3.0 | 3.0 | 0.00 | 0.00 | 0.00 | 25 | 1012.7 |
| 20260507012929 | 75 | 342 | 2.0 | 3.0 | 0.00 | 0.00 | 0.00 | 25 | 1012.8 |
| 20260507012426 | 75 | 46 | 2.0 | 2.0 | 0.00 | 0.00 | 0.00 | 25 | 1012.7 |
| 20260507011923 | 76 | 278 | 2.0 | 2.0 | 0.00 | 0.00 | 0.00 | 25 | 1012.7 |
| 20260507011420 | 76 | 335 | 4.0 | 5.0 | 0.00 | 0.00 | 0.00 | 24 | 1012.7 |
| 20260507010920 | 76 | 358 | 5.0 | 6.0 | 0.00 | 0.00 | 0.00 | 23 | 1012.8 |
| 20260507010415 | 76 | 13 | 2.0 | 3.0 | 0.00 | 0.00 | 0.00 | 24 | 1012.7 |
| 20260507005913 | 76 | 2 | 3.0 | 5.0 | 0.00 | 0.00 | 0.00 | 24 | 1012.7 |
| 20260507005409 | 76 | 6 | 5.0 | 7.0 | 0.00 | 0.00 | 0.00 | 25 | 1012.8 |
| 20260507004906 | 77 | 86 | 3.0 | 5.0 | 0.00 | 0.00 | 0.00 | 24 | 1012.5 |
| 20260507004403 | 76 | 344 | 5.0 | 6.0 | 0.00 | 0.00 | 0.00 | 24 | 1012.7 |
| 20260507003900 | 77 | 301 | 4.0 | 5.0 | 0.00 | 0.00 | 0.00 | 23 | 1012.7 |
| 20260507003355 | 77 | 209 | 9.0 | 10.0 | 0.00 | 0.00 | 0.00 | 24 | 1012.5 |
| 20260507002851 | 77 | 287 | 5.0 | 6.0 | 0.00 | 0.00 | 0.00 | 24 | 1012.8 |
| 20260507002347 | 77 | 230 | 4.0 | 5.0 | 0.00 | 0.00 | 0.00 | 24 | 1012.5 |
| 20260507001844 | 77 | 308 | 4.0 | 6.0 | 0.00 | 0.00 | 0.00 | 23 | 1012.4 |
| 20260507001341 | 76 | 277 | 6.0 | 9.0 | 0.00 | 0.00 | 0.00 | 23 | 1012.4 |
| 20260507000838 | 76 | 269 | 4.0 | 5.0 | 0.00 | 0.00 | 0.00 | 23 | 1012.7 |
| 20260507000335 | 76 | 297 | 3.0 | 5.0 | 0.00 | 0.00 | 0.00 | 24 | 1012.4 |
| 20260506235830 | 77 | 317 | 3.0 | 3.0 | 0.00 | 0.00 | 0.00 | 24 | 1012.5 |
| 20260506235327 | 78 | 299 | 5.0 | 7.0 | 0.00 | 0.00 | 0.00 | 26 | 1012.4 |
| 20260506234823 | 78 | 299 | 5.0 | 6.0 | 0.00 | 0.00 | 0.00 | 24 | 1012.7 |
| 20260506234321 | 77 | 336 | 5.0 | 6.0 | 0.00 | 0.00 | 0.00 | 23 | 1012.3 |
| 20260506233818 | 77 | 231 | 5.0 | 6.0 | 0.00 | 0.00 | 0.00 | 23 | 1012.5 |
| 20260506233313 | 77 | 285 | 2.0 | 3.0 | 0.00 | 0.00 | 0.00 | 25 | 1012.7 |
| 20260506232810 | 77 | 161 | 1.0 | 2.0 | 0.00 | 0.00 | 0.00 | 24 | 1012.4 |
| 20260506232306 | 77 | 290 | 3.0 | 3.0 | 0.00 | 0.00 | 0.00 | 23 | 1012.8 |
| 20260506231803 | 77 | 313 | 4.0 | 6.0 | 0.00 | 0.00 | 0.00 | 25 | 1012.8 |
| 20260506231300 | 77 | 314 | 5.0 | 5.0 | 0.00 | 0.00 | 0.00 | 26 | 1012.8 |
| 20260506230758 | 78 | 276 | 3.0 | 3.0 | 0.00 | 0.00 | 0.00 | 27 | 1012.7 |
| 20260506230249 | 78 | 196 | 5.0 | 7.0 | 0.00 | 0.00 | 0.00 | 25 | 1012.8 |
| 20260506225745 | 78 | 212 | 3.0 | 5.0 | 0.00 | 0.00 | 0.00 | 24 | 1012.8 |
| 20260506225243 | 78 | 316 | 8.0 | 9.0 | 0.00 | 0.00 | 0.00 | 25 | 1012.8 |
| 20260506224739 | 77 | 112 | 1.0 | 1.0 | 0.00 | 0.00 | 0.00 | 25 | 1012.9 |
| 20260506224237 | 77 | 45 | 5.0 | 6.0 | 0.00 | 0.00 | 0.00 | 25 | 1012.8 |
| 20260506223732 | 77 | 280 | 3.0 | 6.0 | 0.00 | 0.00 | 0.00 | 26 | 1012.9 |
| 20260506223228 | 77 | 356 | 5.0 | 7.0 | 0.00 | 0.00 | 0.00 | 27 | 1013.0 |
| 20260506222725 | 76 | 296 | 3.0 | 3.0 | 0.00 | 0.00 | 0.00 | 31 | 1013.3 |
| 20260506222220 | 77 | 7 | 7.0 | 9.0 | 0.00 | 0.00 | 0.00 | 26 | 1013.2 |
| 20260506221719 | 76 | 243 | 1.0 | 2.0 | 0.00 | 0.00 | 0.00 | 28 | 1013.2 |
| 20260506221217 | 76 | 237 | 3.0 | 3.0 | 0.00 | 0.00 | 0.00 | 30 | 1013.1 |
| 20260506220714 | 77 | 329 | 8.0 | 10.0 | 0.00 | 0.00 | 0.00 | 30 | 1013.2 |
| 20260506220208 | 76 | 267 | 0.0 | 0.0 | 0.00 | 0.00 | 0.00 | 28 | 1013.2 |
| 20260506215705 | 76 | 266 | 3.0 | 3.0 | 0.00 | 0.00 | 0.00 | 29 | 1013.3 |
| 20260506215201 | 76 | 241 | 5.0 | 7.0 | 0.00 | 0.00 | 0.00 | 29 | 1013.4 |
| 20260506214658 | 77 | 228 | 1.0 | 1.0 | 0.00 | 0.00 | 0.00 | 26 | 1013.6 |
| 20260506214155 | 75 | 225 | 2.0 | 2.0 | 0.00 | 0.00 | 0.00 | 29 | 1013.5 |
| 20260506213654 | 75 | 271 | 5.0 | 6.0 | 0.00 | 0.00 | 0.00 | 33 | 1013.6 |
| 20260506213150 | 75 | 283 | 3.0 | 3.0 | 0.00 | 0.00 | 0.00 | 27 | 1013.4 |
| 20260506212647 | 76 | 346 | 4.0 | 6.0 | 0.00 | 0.00 | 0.00 | 26 | 1013.6 |
| 20260506212142 | 75 | 289 | 5.0 | 7.0 | 0.00 | 0.00 | 0.00 | 28 | 1013.5 |
| 20260506211638 | 75 | 317 | 4.0 | 5.0 | 0.00 | 0.00 | 0.00 | 28 | 1013.7 |
| 20260506211135 | 76 | 310 | 5.0 | 6.0 | 0.00 | 0.00 | 0.00 | 27 | 1014.0 |
| 20260506210632 | 75 | 17 | 4.0 | 5.0 | 0.00 | 0.00 | 0.00 | 26 | 1014.0 |
| 20260506210129 | 75 | 223 | 2.0 | 3.0 | 0.00 | 0.00 | 0.00 | 27 | 1014.0 |
| 20260506205626 | 75 | 289 | 5.0 | 7.0 | 0.00 | 0.00 | 0.00 | 29 | 1014.1 |
| 20260506205120 | 76 | 233 | 5.0 | 6.0 | 0.00 | 0.00 | 0.00 | 27 | 1014.1 |
| 20260506204619 | 75 | 23 | 2.0 | 2.0 | 0.00 | 0.00 | 0.00 | 26 | 1014.0 |
| 20260506204115 | 74 | 2 | 3.0 | 3.0 | 0.00 | 0.00 | 0.00 | 26 | 1014.1 |
| 20260506203614 | 76 | 285 | 5.0 | 6.0 | 0.00 | 0.00 | 0.00 | 29 | 1014.4 |
| 20260506203109 | 73 | 231 | 2.0 | 2.0 | 0.00 | 0.00 | 0.00 | 28 | 1014.4 |
| 20260506202608 | 75 | 227 | 5.0 | 6.0 | 0.00 | 0.00 | 0.00 | 31 | 1014.2 |
| 20260506202104 | 74 | 295 | 6.0 | 8.0 | 0.00 | 0.00 | 0.00 | 29 | 1014.6 |
| 20260506201601 | 73 | 310 | 1.0 | 2.0 | 0.00 | 0.00 | 0.00 | 27 | 1014.5 |
| 20260506201058 | 75 | 222 | 4.0 | 5.0 | 0.00 | 0.00 | 0.00 | 28 | 1014.5 |
| 20260506200554 | 74 | 307 | 2.0 | 2.0 | 0.00 | 0.00 | 0.00 | 27 | 1014.6 |
| 20260506200051 | 73 | 205 | 2.0 | 2.0 | 0.00 | 0.00 | 0.00 | 29 | 1014.6 |
| 20260506195547 | 74 | 299 | 3.0 | 6.0 | 0.00 | 0.00 | 0.00 | 27 | 1014.6 |
| 20260506195044 | 74 | 205 | 2.0 | 2.0 | 0.00 | 0.00 | 0.00 | 25 | 1014.7 |
| 20260506194542 | 75 | 351 | 1.0 | 2.0 | 0.00 | 0.00 | 0.00 | 24 | 1014.9 |
| 20260506194038 | 75 | 151 | 5.0 | 6.0 | 0.00 | 0.00 | 0.00 | 25 | 1014.7 |
| 20260506193535 | 74 | 84 | 0.0 | 1.0 | 0.00 | 0.00 | 0.00 | 28 | 1015.0 |
| 20260506193032 | 73 | 67 | 3.0 | 5.0 | 0.00 | 0.00 | 0.00 | 27 | 1014.9 |
| 20260506192529 | 73 | 18 | 5.0 | 6.0 | 0.00 | 0.00 | 0.00 | 27 | 1015.1 |
| 20260506192025 | 72 | 28 | 6.0 | 7.0 | 0.00 | 0.00 | 0.00 | 27 | 1015.1 |
| 20260506191522 | 72 | 280 | 6.0 | 7.0 | 0.00 | 0.00 | 0.00 | 27 | 1014.9 |
| 20260506191018 | 72 | 246 | 3.0 | 3.0 | 0.00 | 0.00 | 0.00 | 30 | 1015.3 |
| 20260506190515 | 71 | 340 | 4.0 | 5.0 | 0.00 | 0.00 | 0.00 | 30 | 1015.3 |
| 20260506190012 | 71 | 19 | 3.0 | 3.0 | 0.00 | 0.00 | 0.00 | 31 | 1015.1 |
| 20260506185509 | 72 | 205 | 4.0 | 6.0 | 0.00 | 0.00 | 0.00 | 32 | 1015.4 |
| 20260506185006 | 71 | 321 | 2.0 | 2.0 | 0.00 | 0.00 | 0.00 | 32 | 1015.4 |
| 20260506184503 | 71 | 54 | 4.0 | 5.0 | 0.00 | 0.00 | 0.00 | 31 | 1015.4 |